This is the latest recevied weather packets stored in our database for station/object SQ9SMC-13. If no packets are shown the sender has not sent any weather packets the latest 10 day(s).
| Time | Temp. | Humidity | Pressure | Rain* | Wind** | Luminosity | Snow |
|---|---|---|---|---|---|---|---|
| 1777820402 | 25.56° C | 27% | 1017.2 hPa | 0 mm | - | 274 W/m² | - |
| 1777820105 | 25.56° C | 29% | 1017.3 hPa | 0 mm | - | 292 W/m² | - |
| 1777819803 | 25.56° C | 28% | 1017.4 hPa | 0 mm | - | 305 W/m² | - |
| 1777819504 | 25.56° C | 29% | 1017.4 hPa | 0 mm | - | 315 W/m² | - |
| 1777819203 | 25.56° C | 27% | 1017.6 hPa | 0 mm | - | 332 W/m² | - |
| 1777818903 | 25.56° C | 28% | 1017.5 hPa | 0 mm | - | 344 W/m² | - |
| 1777818603 | 26.11° C | 28% | 1017.5 hPa | 0 mm | - | 354 W/m² | - |
| 1777818305 | 25.56° C | 29% | 1017.5 hPa | 0 mm | - | 362 W/m² | - |
| 1777818002 | 25.56° C | 28% | 1017.8 hPa | 0 mm | - | 378 W/m² | - |
| 1777817705 | 25.56° C | 29% | 1017.7 hPa | 0 mm | - | 394 W/m² | - |
| 1777817403 | 25.56° C | 27% | 1017.8 hPa | 0 mm | - | 403 W/m² | - |
| 1777817105 | 26.11° C | 28% | 1017.9 hPa | 0 mm | - | 410 W/m² | - |
| 1777816805 | 26.11° C | 29% | 1017.9 hPa | 0 mm | - | 425 W/m² | - |
| 1777816502 | 26.11° C | 29% | 1018 hPa | 0 mm | - | 440 W/m² | - |
| 1777816203 | 25.56° C | 30% | 1017.9 hPa | 0 mm | - | 442 W/m² | - |
| 1777815902 | 26.11° C | 28% | 1017.9 hPa | 0 mm | - | 445 W/m² | - |
| 1777815603 | 26.11° C | 27% | 1018.1 hPa | 0 mm | - | 462 W/m² | - |
| 1777815304 | 25.56° C | 27% | 1018.1 hPa | 0 mm | - | 466 W/m² | - |
| 1777815004 | 25.56° C | 28% | 1018.3 hPa | 0 mm | - | 458 W/m² | - |
| 1777814704 | 25.56° C | 29% | 1018.3 hPa | 0 mm | - | 469 W/m² | - |
| 1777814403 | 25.56° C | 28% | 1018.4 hPa | 0 mm | - | 487 W/m² | - |
| 1777814106 | 26.11° C | 27% | 1018.5 hPa | 0 mm | - | 492 W/m² | - |
| 1777813803 | 25.56° C | 28% | 1018.5 hPa | 0 mm | - | 508 W/m² | - |
| 1777813503 | 25.56° C | 27% | 1018.5 hPa | 0 mm | - | 527 W/m² | - |
| 1777813203 | 25° C | 28% | 1018.6 hPa | 0 mm | - | 543 W/m² | - |
* Rain latest hour (hover to see other rain measurements)
** Current wind speed in m/s (hover to see current wind gust speed)